COSMOS 2459 (731)

Last updated on Nov. 12, 2019, 4:19 a.m. UTC

1 36400U 10007A   19314.89220868 -.00000061  00000-0  10000-3 0  9994
2 36400  65.8125  35.2408 0023893 349.1852 293.6099  2.13101998 75454
UTC
Height (km)
Latitude
Longitude
Inclination
Orbital Period
UTC large
Height (km)
Speed (km/s)
/
Latitude / Longitude
Inclination (degrees)
Orbital Period (minutes)
Azimuth
Elevation
Range (km)
Doppler Factor
iOS Compass Heading
iOS Angle

Next 30 passes for location: Hong Kong

Rise time Rise Azimuth (degrees) Set time Set Azimuth (degrees) Duration Max altitude (degrees)

No matching passes for this satellites